Date,TemperatureHighF,TemperatureAvgF,TemperatureLowF,DewpointHighF,DewpointAvgF,DewpointLowF,HumidityHigh,HumidityAvg,HumidityLow,PressureMaxIn,PressureMinIn,WindSpeedMaxMPH,WindSpeedAvgMPH,GustSpeedMaxMPH,PrecipitationSumIn
2013-2-1,25.0,18.7,10.0,16.6,8.2,1.6,72,63,52,30.58,30.34,29,7,31,0.00
2013-2-2,41.0,33.3,25.0,32.7,24.8,15.9,84,71,60,30.34,30.10,21,7,21,0.00
2013-2-3,40.0,34.0,27.0,32.9,26.7,20.5,96,75,54,30.20,30.02,27,7,27,0.00
2013-2-4,48.0,38.5,28.0,41.7,33.4,22.9,99,83,52,30.12,29.89,23,8,26,0.01
2013-2-5,53.0,40.2,28.0,43.5,36.7,27.8,100,88,58,30.13,29.95,20,5,20,0.00
2013-2-6,52.0,41.8,30.0,38.7,32.6,29.0,99,72,44,30.29,30.12,18,4,19,0.00
2013-2-7,65.0,52.5,38.0,54.8,44.6,28.8,100,75,59,30.13,29.89,24,6,25,0.26
2013-2-8,48.0,38.6,32.0,47.2,34.5,27.7,97,85,71,30.40,29.97,30,11,30,0.00
2013-2-9,47.0,38.9,31.0,35.7,30.7,26.7,87,73,55,30.42,30.09,15,6,15,0.00
2013-2-10,58.0,52.4,46.0,57.2,46.9,34.1,98,82,61,30.09,29.73,40,12,42,0.43
2013-2-11,55.0,46.6,39.0,54.2,33.8,28.4,97,62,42,30.19,29.87,26,9,26,0.00
2013-2-12,50.0,41.0,28.0,40.6,32.2,28.0,100,74,48,30.20,29.89,14,3,14,0.00
2013-2-13,46.0,40.0,34.0,40.1,36.6,33.5,100,88,72,29.98,29.86,18,6,19,0.13
2013-2-14,58.0,46.0,36.0,44.2,39.3,33.0,100,79,58,30.07,29.93,20,7,20,0.01
2013-2-15,43.0,37.5,27.0,34.7,26.3,16.1,89,65,39,30.26,30.07,23,6,24,0.00
2013-2-16,36.0,28.4,22.0,21.7,14.9,7.9,89,59,35,30.27,30.20,21,6,21,0.00
2013-2-17,46.0,33.2,16.0,26.8,20.8,10.8,91,62,42,30.28,30.07,19,6,19,0.00
2013-2-18,59.0,48.4,38.0,50.2,40.1,23.7,97,74,47,30.07,29.68,48,15,48,0.42
2013-2-19,43.0,35.5,25.0,39.0,22.3,13.3,90,61,33,30.31,29.90,31,12,31,0.00
2013-2-20,31.0,25.5,21.0,19.3,15.7,12.7,82,66,54,30.42,30.29,15,5,15,0.00
2013-2-21,34.0,29.1,23.0,34.0,24.4,17.3,100,83,60,30.33,29.83,24,6,25,0.95
2013-2-22,46.0,37.2,31.0,39.5,34.6,27.0,100,91,75,30.11,29.83,24,9,24,0.06
2013-2-23,43.0,33.3,25.0,29.9,26.2,23.0,96,76,53,30.11,29.98,13,3,14,0.00
2013-2-24,51.0,37.3,22.0,31.1,26.9,20.8,98,69,42,30.18,30.03,14,4,14,0.00
2013-2-25,55.0,45.3,34.0,37.6,30.1,25.5,76,56,39,30.07,29.52,29,11,31,0.07
2013-2-26,49.0,43.6,38.0,49.0,41.3,34.8,100,92,78,29.70,29.35,30,12,30,0.57
2013-2-27,39.0,36.8,32.0,35.0,32.5,29.0,93,84,70,29.93,29.70,20,12,22,0.00
2013-2-28,38.0,34.1,32.0,34.0,30.8,27.4,100,88,78,30.13,29.92,15,9,19,0.01